Location: Chervonnoye
(48.6000°N, 34.4000°E)
Time: 16:11:11
(UTC+00:00)

NOSS 2-1 (E) - Pass Details

Date: 23 November 2020
Orbit: 436 x 1766 km, 63.3° (Epoch: 23 January)

Event Time Altitude Azimuth Distance (km) Brightness Sun altitude
Rises 14:39:41 0° 319° (NW) 2,961 7.3 -7.5°
Reaches altitude 10° 14:41:41 10° 320° (NW) 2,186 6.6 -7.8°
Maximum altitude 14:46:42 81° 48° (NE) 903 4.3 -8.6°
Drops below altitude 10° 14:53:49 10° 136° (SE) 3,065 6.9 -9.7°
Sets 14:57:03 0° 138° (SE) 4,245 7.6 -10.2°
